Time,TemperatureF,DewpointF,PressureIn,WindDirection,WindDirectionDegrees,WindSpeedMPH,WindSpeedGustMPH,Humidity,HourlyPrecipIn,Conditions,Clouds,dailyrainin,SoftwareType,DateUTC
2013-08-06 00:03:00,59.9,32.9,29.96,North,0,0.0,0.0,36,0.00,,SKC,0.00,VWS V13.00,2013-08-06 06:03:00,
2013-08-06 00:08:00,59.9,32.9,29.96,North,0,0.0,0.0,36,0.00,,SKC,0.00,VWS V13.00,2013-08-06 06:08:00,
2013-08-06 00:13:00,59.7,32.7,29.96,North,0,0.0,0.0,36,0.00,,SKC,0.00,VWS V13.00,2013-08-06 06:13:00,
2013-08-06 00:18:00,59.5,32.6,29.96,North,0,0.0,0.0,36,0.00,,SKC,0.00,VWS V13.00,2013-08-06 06:18:00,
2013-08-06 00:23:00,59.4,32.4,29.96,North,0,0.0,0.0,36,0.00,,SKC,0.00,VWS V13.00,2013-08-06 06:23:00,
2013-08-06 00:28:00,59.4,33.1,29.96,North,0,0.0,0.0,37,0.00,,SKC,0.00,VWS V13.00,2013-08-06 06:28:00,
2013-08-06 00:33:00,59.2,33.0,29.96,North,0,0.0,0.0,37,0.00,,SKC,0.00,VWS V13.00,2013-08-06 06:33:00,
2013-08-06 00:38:00,59.0,32.8,29.96,North,0,0.0,0.0,37,0.00,,SKC,0.00,VWS V13.00,2013-08-06 06:38:00,
2013-08-06 00:43:00,58.8,32.6,29.96,North,0,0.0,0.0,37,0.00,,SKC,0.00,VWS V13.00,2013-08-06 06:43:00,
2013-08-06 00:49:00,58.5,33.0,29.96,North,0,0.0,0.0,38,0.00,,SKC,0.00,VWS V13.00,2013-08-06 06:49:00,
2013-08-06 00:54:00,58.5,33.0,29.96,North,0,0.0,0.0,38,0.00,,SKC,0.00,VWS V13.00,2013-08-06 06:54:00,
2013-08-06 00:59:00,58.1,32.7,29.96,North,0,0.0,0.0,38,0.00,,SKC,0.00,VWS V13.00,2013-08-06 06:59:00,
2013-08-06 01:04:00,57.9,32.5,29.96,North,0,0.0,0.0,38,0.00,,SKC,0.00,VWS V13.00,2013-08-06 07:04:00,
2013-08-06 01:09:00,57.9,32.5,29.96,North,0,0.0,0.0,38,0.00,,SKC,0.00,VWS V13.00,2013-08-06 07:09:00,
2013-08-06 01:14:00,57.7,33.0,29.96,North,0,0.0,0.0,39,0.00,,SKC,0.00,VWS V13.00,2013-08-06 07:14:00,
2013-08-06 01:19:00,57.6,32.8,29.96,North,0,0.0,0.0,39,0.00,,SKC,0.00,VWS V13.00,2013-08-06 07:19:00,
2013-08-06 01:24:00,57.6,32.8,29.96,North,0,0.0,0.0,39,0.00,,SKC,0.00,VWS V13.00,2013-08-06 07:24:00,
2013-08-06 01:29:00,57.6,32.8,29.96,North,0,0.0,0.0,39,0.00,,SKC,0.00,VWS V13.00,2013-08-06 07:29:00,
2013-08-06 01:34:00,57.4,32.7,29.96,North,0,0.0,0.0,39,0.00,,SKC,0.00,VWS V13.00,2013-08-06 07:34:00,
2013-08-06 01:39:00,57.4,33.3,29.96,North,0,0.0,0.0,40,0.00,,SKC,0.00,VWS V13.00,2013-08-06 07:39:00,
2013-08-06 01:44:00,57.2,33.1,29.96,North,0,0.0,0.0,40,0.00,,SKC,0.00,VWS V13.00,2013-08-06 07:44:00,
2013-08-06 01:49:00,57.2,34.3,29.96,North,0,0.0,0.0,42,0.00,,SKC,0.00,VWS V13.00,2013-08-06 07:49:00,
2013-08-06 01:54:00,57.0,34.2,29.96,North,0,0.0,0.0,42,0.00,,SKC,0.00,VWS V13.00,2013-08-06 07:54:00,
2013-08-06 01:59:00,56.8,34.6,29.96,North,0,0.0,0.0,43,0.00,,SKC,0.00,VWS V13.00,2013-08-06 07:59:00,
2013-08-06 02:04:00,56.8,34.6,29.96,North,0,0.0,0.0,43,0.00,,SKC,0.00,VWS V13.00,2013-08-06 08:04:00,
2013-08-06 02:09:00,56.7,35.6,29.96,North,0,0.0,0.0,45,0.00,,SKC,0.00,VWS V13.00,2013-08-06 08:09:00,
2013-08-06 02:14:00,56.5,35.4,29.96,North,0,0.0,0.0,45,0.00,,SKC,0.00,VWS V13.00,2013-08-06 08:14:00,
2013-08-06 02:19:00,56.3,35.2,29.96,North,0,0.0,0.0,45,0.00,,SKC,0.00,VWS V13.00,2013-08-06 08:19:00,
2013-08-06 02:24:00,56.3,35.2,29.96,North,0,0.0,0.0,45,0.00,,SKC,0.00,VWS V13.00,2013-08-06 08:24:00,
2013-08-06 02:29:00,56.1,35.6,29.96,North,0,0.0,0.0,46,0.00,,SKC,0.00,VWS V13.00,2013-08-06 08:29:00,
2013-08-06 02:34:00,55.9,35.5,29.96,North,0,0.0,0.0,46,0.00,,SKC,0.00,VWS V13.00,2013-08-06 08:34:00,
2013-08-06 02:39:00,55.8,35.8,29.96,North,0,0.0,0.0,47,0.00,,SKC,0.00,VWS V13.00,2013-08-06 08:39:00,
2013-08-06 02:45:00,55.6,35.2,29.96,North,0,0.0,0.0,46,0.00,,SKC,0.00,VWS V13.00,2013-08-06 08:45:00,
2013-08-06 02:50:00,55.4,35.5,29.96,North,0,0.0,0.0,47,0.00,,SKC,0.00,VWS V13.00,2013-08-06 08:50:00,
2013-08-06 02:55:00,55.4,35.5,29.96,North,0,0.0,0.0,47,0.00,,SKC,0.00,VWS V13.00,2013-08-06 08:55:00,
2013-08-06 03:00:00,55.2,35.9,29.96,North,0,0.0,0.0,48,0.00,,SKC,0.00,VWS V13.00,2013-08-06 09:00:00,
2013-08-06 03:05:00,55.2,35.9,29.96,North,0,0.0,0.0,48,0.00,,SKC,0.00,VWS V13.00,2013-08-06 09:05:00,
2013-08-06 03:10:00,55.0,35.7,29.96,North,0,0.0,0.0,48,0.00,,SKC,0.00,VWS V13.00,2013-08-06 09:10:00,
2013-08-06 03:15:00,54.9,35.0,29.96,North,0,0.0,0.0,47,0.00,,SKC,0.00,VWS V13.00,2013-08-06 09:15:00,
2013-08-06 03:20:00,54.9,35.0,29.96,North,0,0.0,0.0,47,0.00,,SKC,0.00,VWS V13.00,2013-08-06 09:20:00,
2013-08-06 03:25:00,54.9,35.0,29.96,North,0,0.0,0.0,47,0.00,,SKC,0.00,VWS V13.00,2013-08-06 09:25:00,
2013-08-06 03:30:00,54.7,34.9,29.96,North,0,0.0,0.0,47,0.00,,SKC,0.00,VWS V13.00,2013-08-06 09:30:00,
2013-08-06 03:35:00,54.7,34.9,29.96,North,0,0.0,0.0,47,0.00,,SKC,0.00,VWS V13.00,2013-08-06 09:35:00,
2013-08-06 03:40:00,54.5,35.2,29.96,North,0,0.0,0.0,48,0.00,,SKC,0.00,VWS V13.00,2013-08-06 09:40:00,
2013-08-06 03:45:00,54.5,35.2,29.96,North,0,0.0,0.0,48,0.00,,SKC,0.00,VWS V13.00,2013-08-06 09:45:00,
2013-08-06 03:50:00,54.3,34.5,29.96,North,0,0.0,0.0,47,0.00,,SKC,0.00,VWS V13.00,2013-08-06 09:50:00,
2013-08-06 03:55:00,54.1,34.4,29.96,North,0,0.0,0.0,47,0.00,,SKC,0.00,VWS V13.00,2013-08-06 09:55:00,
2013-08-06 04:00:00,54.1,34.4,29.93,North,0,0.0,0.0,47,0.00,,SKC,0.00,VWS V13.00,2013-08-06 10:00:00,
2013-08-06 04:05:00,54.1,34.4,29.93,North,0,0.0,0.0,47,0.00,,SKC,0.00,VWS V13.00,2013-08-06 10:05:00,
2013-08-06 04:10:00,54.1,34.9,29.93,North,0,0.0,0.0,48,0.00,,SKC,0.00,VWS V13.00,2013-08-06 10:10:00,
2013-08-06 04:15:00,54.0,34.7,29.93,North,0,0.0,0.0,48,0.00,,SKC,0.00,VWS V13.00,2013-08-06 10:15:00,
2013-08-06 04:20:00,54.0,34.7,29.93,North,0,0.0,0.0,48,0.00,,SKC,0.00,VWS V13.00,2013-08-06 10:20:00,
2013-08-06 04:26:00,53.8,34.6,29.93,North,0,0.0,0.0,48,0.00,,SKC,0.00,VWS V13.00,2013-08-06 10:26:00,
2013-08-06 04:31:00,53.8,35.1,29.93,North,0,0.0,0.0,49,0.00,,SKC,0.00,VWS V13.00,2013-08-06 10:31:00,
2013-08-06 04:36:00,53.8,34.6,29.93,North,0,0.0,0.0,48,0.00,,SKC,0.00,VWS V13.00,2013-08-06 10:36:00,
2013-08-06 04:41:00,53.8,34.6,29.93,North,0,0.0,0.0,48,0.00,,SKC,0.00,VWS V13.00,2013-08-06 10:41:00,
2013-08-06 04:46:00,53.8,34.6,29.96,North,0,0.0,0.0,48,0.00,,SKC,0.00,VWS V13.00,2013-08-06 10:46:00,
2013-08-06 04:51:00,53.8,35.1,29.96,North,0,0.0,0.0,49,0.00,,SKC,0.00,VWS V13.00,2013-08-06 10:51:00,
2013-08-06 04:56:00,53.6,34.9,29.96,North,0,0.0,0.0,49,0.00,,SKC,0.00,VWS V13.00,2013-08-06 10:56:00,
2013-08-06 05:01:00,53.6,34.9,29.96,North,0,0.0,0.0,49,0.00,,SKC,0.00,VWS V13.00,2013-08-06 11:01:00,
2013-08-06 05:06:00,53.4,35.3,29.96,North,0,0.0,0.0,50,0.00,,SKC,0.00,VWS V13.00,2013-08-06 11:06:00,
2013-08-06 05:11:00,53.4,35.8,29.96,North,0,0.0,0.0,51,0.00,,SKC,0.00,VWS V13.00,2013-08-06 11:11:00,
2013-08-06 05:16:00,53.4,35.8,29.96,North,0,0.0,0.0,51,0.00,,SKC,0.00,VWS V13.00,2013-08-06 11:16:00,
2013-08-06 05:21:00,53.2,35.1,29.96,North,0,0.0,0.0,50,0.00,,SKC,0.00,VWS V13.00,2013-08-06 11:21:00,
2013-08-06 05:26:00,53.2,35.6,29.96,North,0,0.0,0.0,51,0.00,,SKC,0.00,VWS V13.00,2013-08-06 11:26:00,
2013-08-06 05:31:00,53.1,35.4,29.96,North,0,0.0,0.0,51,0.00,,SKC,0.00,VWS V13.00,2013-08-06 11:31:00,
2013-08-06 05:36:00,53.1,35.4,29.96,North,0,0.0,0.0,51,0.00,,SKC,0.00,VWS V13.00,2013-08-06 11:36:00,
2013-08-06 05:41:00,53.1,35.4,29.96,North,0,0.0,0.0,51,0.00,,SKC,0.00,VWS V13.00,2013-08-06 11:41:00,
2013-08-06 05:46:00,52.9,35.3,29.96,North,0,0.0,0.0,51,0.00,,SKC,0.00,VWS V13.00,2013-08-06 11:46:00,
2013-08-06 05:52:00,52.9,35.8,29.96,North,0,0.0,0.0,52,0.00,,SKC,0.00,VWS V13.00,2013-08-06 11:52:00,
2013-08-06 05:57:00,52.9,35.8,29.96,North,0,0.0,0.0,52,0.00,,SKC,0.00,VWS V13.00,2013-08-06 11:57:00,
2013-08-06 06:02:00,52.9,35.3,29.96,North,0,0.0,0.0,51,0.00,,SKC,0.00,VWS V13.00,2013-08-06 12:02:00,
2013-08-06 06:07:00,52.9,35.3,29.96,North,0,0.0,0.0,51,0.00,,SKC,0.00,VWS V13.00,2013-08-06 12:07:00,
2013-08-06 06:12:00,52.9,35.3,29.96,North,0,0.0,0.0,51,0.00,,SKC,0.00,VWS V13.00,2013-08-06 12:12:00,
2013-08-06 06:17:00,52.9,35.3,29.96,North,0,0.0,0.0,51,0.00,,SKC,0.00,VWS V13.00,2013-08-06 12:17:00,
2013-08-06 06:22:00,52.9,35.3,29.96,North,0,0.0,0.0,51,0.00,,SKC,0.00,VWS V13.00,2013-08-06 12:22:00,
2013-08-06 06:27:00,52.9,35.3,29.96,North,0,0.0,0.0,51,0.00,,SKC,0.00,VWS V13.00,2013-08-06 12:27:00,
2013-08-06 06:32:00,52.9,35.3,29.96,North,0,0.0,0.0,51,0.00,,SKC,0.00,VWS V13.00,2013-08-06 12:32:00,
2013-08-06 06:37:00,53.1,35.9,29.96,North,0,0.0,0.0,52,0.00,,SKC,0.00,VWS V13.00,2013-08-06 12:37:00,
2013-08-06 06:42:00,53.2,36.1,29.96,North,0,0.0,0.0,52,0.00,,SKC,0.00,VWS V13.00,2013-08-06 12:42:00,
2013-08-06 06:47:00,53.4,36.2,29.96,North,0,0.0,0.0,52,0.00,,SKC,0.00,VWS V13.00,2013-08-06 12:47:00,
2013-08-06 06:52:00,53.6,36.9,29.96,North,0,0.0,0.0,53,0.00,,SKC,0.00,VWS V13.00,2013-08-06 12:52:00,
2013-08-06 06:57:00,53.8,37.1,29.96,North,0,0.0,0.0,53,0.00,,SKC,0.00,VWS V13.00,2013-08-06 12:57:00,
2013-08-06 07:02:00,54.0,37.2,29.96,North,0,0.0,0.0,53,0.00,,SKC,0.00,VWS V13.00,2013-08-06 13:02:00,
2013-08-06 07:07:00,54.3,38.0,29.96,North,0,0.0,0.0,54,0.00,,SKC,0.00,VWS V13.00,2013-08-06 13:07:00,
2013-08-06 07:12:00,54.7,38.4,29.96,North,0,0.0,0.0,54,0.00,,SKC,0.00,VWS V13.00,2013-08-06 13:12:00,
2013-08-06 07:17:00,55.0,39.2,29.96,North,0,0.0,0.0,55,0.00,,SKC,0.00,VWS V13.00,2013-08-06 13:17:00,
2013-08-06 07:22:00,55.6,39.7,29.96,North,0,0.0,0.0,55,0.00,,SKC,0.00,VWS V13.00,2013-08-06 13:22:00,
2013-08-06 07:28:00,55.9,40.0,29.96,North,0,0.0,0.0,55,0.00,,SKC,0.00,VWS V13.00,2013-08-06 13:28:00,
2013-08-06 07:33:00,56.3,40.8,29.96,North,0,0.0,0.0,56,0.00,,SKC,0.00,VWS V13.00,2013-08-06 13:33:00,
2013-08-06 07:38:00,56.8,41.3,29.96,North,0,0.0,0.0,56,0.00,,SKC,0.00,VWS V13.00,2013-08-06 13:38:00,
2013-08-06 07:43:00,57.2,41.7,29.96,North,0,0.0,0.0,56,0.00,,SKC,0.00,VWS V13.00,2013-08-06 13:43:00,
2013-08-06 07:48:00,57.7,42.2,29.96,North,0,0.0,0.0,56,0.00,,SKC,0.00,VWS V13.00,2013-08-06 13:48:00,
2013-08-06 07:53:00,58.5,43.3,29.96,North,0,0.0,0.0,57,0.00,,SKC,0.00,VWS V13.00,2013-08-06 13:53:00,
2013-08-06 07:58:00,59.0,43.3,29.96,North,0,0.0,0.0,56,0.00,,SKC,0.00,VWS V13.00,2013-08-06 13:58:00,
2013-08-06 08:03:00,59.9,44.7,29.96,North,0,0.0,0.0,57,0.00,,SKC,0.00,VWS V13.00,2013-08-06 14:03:00,
2013-08-06 08:08:00,60.6,45.3,29.96,North,0,0.0,0.0,57,0.00,,SKC,0.00,VWS V13.00,2013-08-06 14:08:00,
2013-08-06 08:13:00,61.5,46.2,29.99,North,0,0.0,0.0,57,0.00,,SKC,0.00,VWS V13.00,2013-08-06 14:13:00,
2013-08-06 08:18:00,62.1,45.7,29.99,North,0,0.0,0.0,55,0.00,,SKC,0.00,VWS V13.00,2013-08-06 14:18:00,
2013-08-06 08:23:00,62.2,45.4,29.99,North,0,0.0,0.0,54,0.00,,SKC,0.00,VWS V13.00,2013-08-06 14:23:00,
2013-08-06 08:28:00,62.4,44.6,29.99,North,0,0.0,0.0,52,0.00,,SKC,0.00,VWS V13.00,2013-08-06 14:28:00,
2013-08-06 08:33:00,62.8,43.9,29.99,North,0,0.0,0.0,50,0.00,,SKC,0.00,VWS V13.00,2013-08-06 14:33:00,
2013-08-06 08:38:00,63.7,42.5,29.99,North,0,0.0,0.0,46,0.00,,SKC,0.00,VWS V13.00,2013-08-06 14:38:00,
2013-08-06 08:43:00,64.2,41.9,29.99,North,0,0.0,0.0,44,0.00,,SKC,0.00,VWS V13.00,2013-08-06 14:43:00,
2013-08-06 08:48:00,64.6,42.8,29.99,North,0,0.0,0.0,45,0.00,,SKC,0.00,VWS V13.00,2013-08-06 14:48:00,
2013-08-06 08:53:00,64.8,43.5,29.99,North,0,0.0,0.0,46,0.00,,SKC,0.00,VWS V13.00,2013-08-06 14:53:00,
2013-08-06 08:58:00,64.6,43.4,29.99,North,0,0.0,0.0,46,0.00,,SKC,0.00,VWS V13.00,2013-08-06 14:58:00,
2013-08-06 09:03:00,64.8,43.0,29.99,North,0,0.0,0.0,45,0.00,,SKC,0.00,VWS V13.00,2013-08-06 15:03:00,
2013-08-06 09:08:00,65.1,43.8,29.99,North,0,0.0,0.0,46,0.00,,SKC,0.00,VWS V13.00,2013-08-06 15:08:00,
2013-08-06 09:13:00,65.7,41.3,29.99,North,0,0.0,0.0,41,0.00,,SKC,0.00,VWS V13.00,2013-08-06 15:13:00,
2013-08-06 09:19:00,66.0,42.9,29.99,North,0,0.0,0.0,43,0.00,,SKC,0.00,VWS V13.00,2013-08-06 15:19:00,
2013-08-06 09:24:00,66.2,42.5,29.99,North,0,0.0,0.0,42,0.00,,SKC,0.00,VWS V13.00,2013-08-06 15:24:00,
2013-08-06 09:29:00,66.4,42.0,29.99,North,0,0.0,0.0,41,0.00,,SKC,0.00,VWS V13.00,2013-08-06 15:29:00,
2013-08-06 09:34:00,66.9,43.1,29.99,North,0,0.0,0.0,42,0.00,,SKC,0.00,VWS V13.00,2013-08-06 15:34:00,
2013-08-06 09:39:00,67.8,42.0,29.99,North,0,0.0,0.0,39,0.00,,SKC,0.00,VWS V13.00,2013-08-06 15:39:00,
2013-08-06 09:44:00,68.7,40.7,29.99,North,0,0.0,0.0,36,0.00,,SKC,0.00,VWS V13.00,2013-08-06 15:44:00,
2013-08-06 09:49:00,69.3,41.2,29.99,North,0,0.0,0.0,36,0.00,,SKC,0.00,VWS V13.00,2013-08-06 15:49:00,
2013-08-06 09:54:00,69.8,42.4,29.99,North,0,0.0,0.0,37,0.00,,SKC,0.00,VWS V13.00,2013-08-06 15:54:00,
2013-08-06 09:59:00,69.4,42.1,29.99,North,0,0.0,0.0,37,0.00,,SKC,0.00,VWS V13.00,2013-08-06 15:59:00,
2013-08-06 10:04:00,68.7,40.7,29.99,North,0,0.0,0.0,36,0.00,,SKC,0.00,VWS V13.00,2013-08-06 16:04:00,
2013-08-06 10:09:00,68.4,39.7,29.99,North,0,0.0,0.0,35,0.00,,SKC,0.00,VWS V13.00,2013-08-06 16:09:00,
2013-08-06 10:14:00,68.5,39.8,29.99,North,0,0.0,0.0,35,0.00,,SKC,0.00,VWS V13.00,2013-08-06 16:14:00,
2013-08-06 10:19:00,69.6,42.2,29.99,North,0,0.0,0.0,37,0.00,,SKC,0.00,VWS V13.00,2013-08-06 16:19:00,
2013-08-06 10:24:00,70.5,42.3,29.99,North,0,0.0,0.0,36,0.00,,SKC,0.00,VWS V13.00,2013-08-06 16:24:00,
2013-08-06 10:29:00,71.8,40.4,29.99,North,0,0.0,0.0,32,0.00,,SKC,0.00,VWS V13.00,2013-08-06 16:29:00,
2013-08-06 10:34:00,73.0,41.5,29.99,North,0,0.0,0.0,32,0.00,,SKC,0.00,VWS V13.00,2013-08-06 16:34:00,
2013-08-06 10:39:00,73.9,43.0,29.99,North,0,0.0,0.0,33,0.00,,SKC,0.00,VWS V13.00,2013-08-06 16:39:00,
2013-08-06 10:44:00,74.7,42.0,29.99,North,0,0.0,0.0,31,0.00,,SKC,0.00,VWS V13.00,2013-08-06 16:44:00,
2013-08-06 10:49:00,75.0,42.4,29.99,North,0,0.0,0.0,31,0.00,,SKC,0.00,VWS V13.00,2013-08-06 16:49:00,
2013-08-06 10:54:00,75.9,39.6,29.99,North,0,0.0,0.0,27,0.00,,SKC,0.00,VWS V13.00,2013-08-06 16:54:00,
2013-08-06 10:59:00,76.5,37.0,29.99,North,0,0.0,0.0,24,0.00,,SKC,0.00,VWS V13.00,2013-08-06 16:59:00,
2013-08-06 11:04:00,77.2,38.7,29.99,North,0,0.0,0.0,25,0.00,,SKC,0.00,VWS V13.00,2013-08-06 17:04:00,
2013-08-06 11:09:00,77.2,37.6,29.99,North,0,0.0,0.0,24,0.00,,SKC,0.00,VWS V13.00,2013-08-06 17:09:00,
2013-08-06 11:14:00,77.7,37.0,29.99,North,0,0.0,0.0,23,0.00,,SKC,0.00,VWS V13.00,2013-08-06 17:14:00,
2013-08-06 11:19:00,77.9,37.2,29.99,North,0,0.0,0.0,23,0.00,,SKC,0.00,VWS V13.00,2013-08-06 17:19:00,
2013-08-06 11:25:00,78.1,37.3,29.99,North,0,0.0,0.0,23,0.00,,SKC,0.00,VWS V13.00,2013-08-06 17:25:00,
2013-08-06 11:27:00,78.1,36.2,29.99,North,0,0.0,0.0,22,0.00,,SKC,0.00,VWS V13.00,2013-08-06 17:27:00,
2013-08-06 11:32:00,78.1,36.2,29.99,North,0,0.0,0.0,22,0.00,,SKC,0.00,VWS V13.00,2013-08-06 17:32:00,
2013-08-06 11:37:00,77.9,36.0,29.99,North,0,0.0,0.0,22,0.00,,SKC,0.00,VWS V13.00,2013-08-06 17:37:00,
2013-08-06 11:42:00,78.1,36.2,29.99,North,0,0.0,0.0,22,0.00,,SKC,0.00,VWS V13.00,2013-08-06 17:42:00,
2013-08-06 11:47:00,78.4,36.5,29.99,North,0,0.0,0.0,22,0.00,,SKC,0.00,VWS V13.00,2013-08-06 17:47:00,
2013-08-06 11:52:00,78.4,35.3,29.99,North,0,0.0,0.0,21,0.00,,SKC,0.00,VWS V13.00,2013-08-06 17:52:00,
2013-08-06 11:53:00,78.4,35.3,29.99,North,0,0.0,0.0,21,0.00,,SKC,0.00,VWS V13.00,2013-08-06 17:53:00,
2013-08-06 11:58:00,78.6,35.5,29.99,North,0,0.0,0.0,21,0.00,,SKC,0.00,VWS V13.00,2013-08-06 17:58:00,
2013-08-06 12:03:00,78.4,35.3,29.99,North,0,0.0,0.0,21,0.00,,SKC,0.00,VWS V13.00,2013-08-06 18:03:00,
2013-08-06 12:08:00,78.3,35.2,29.99,North,0,0.0,0.0,21,0.00,,SKC,0.00,VWS V13.00,2013-08-06 18:08:00,
2013-08-06 12:13:00,78.4,35.3,29.99,North,0,0.0,0.0,21,0.00,,SKC,0.00,VWS V13.00,2013-08-06 18:13:00,
2013-08-06 12:18:00,78.4,35.3,29.99,North,0,0.0,0.0,21,0.00,,SKC,0.00,VWS V13.00,2013-08-06 18:18:00,
2013-08-06 12:23:00,78.6,35.5,29.99,North,0,0.0,0.0,21,0.00,,SKC,0.00,VWS V13.00,2013-08-06 18:23:00,
2013-08-06 12:28:00,78.8,35.6,29.96,North,0,0.0,0.0,21,0.00,,SKC,0.00,VWS V13.00,2013-08-06 18:28:00,
2013-08-06 12:33:00,79.2,35.9,29.96,North,0,0.0,0.0,21,0.00,,SKC,0.00,VWS V13.00,2013-08-06 18:33:00,
2013-08-06 12:38:00,79.3,36.0,29.96,North,0,0.0,0.0,21,0.00,,SKC,0.00,VWS V13.00,2013-08-06 18:38:00,
2013-08-06 12:43:00,79.7,36.3,29.96,North,0,0.0,0.0,21,0.00,,SKC,0.00,VWS V13.00,2013-08-06 18:43:00,
2013-08-06 12:48:00,80.1,36.7,29.96,North,0,0.0,0.0,21,0.00,,SKC,0.00,VWS V13.00,2013-08-06 18:48:00,
2013-08-06 12:53:00,80.6,35.9,29.96,North,0,0.0,0.0,20,0.00,,SKC,0.00,VWS V13.00,2013-08-06 18:53:00,
2013-08-06 12:58:00,81.1,36.3,29.96,North,0,0.0,0.0,20,0.00,,SKC,0.00,VWS V13.00,2013-08-06 18:58:00,
2013-08-06 13:03:00,81.7,36.8,29.96,North,0,0.0,0.0,20,0.00,,SKC,0.00,VWS V13.00,2013-08-06 19:03:00,
2013-08-06 13:08:00,82.4,37.3,29.96,North,0,0.0,0.0,20,0.00,,SKC,0.00,VWS V13.00,2013-08-06 19:08:00,
2013-08-06 13:13:00,82.9,36.5,29.96,North,0,0.0,0.0,19,0.00,,SKC,0.00,VWS V13.00,2013-08-06 19:13:00,
2013-08-06 13:18:00,83.5,36.9,29.96,North,0,0.0,0.0,19,0.00,,SKC,0.00,VWS V13.00,2013-08-06 19:18:00,
2013-08-06 13:23:00,83.7,37.1,29.96,North,0,0.0,0.0,19,0.00,,SKC,0.00,VWS V13.00,2013-08-06 19:23:00,
2013-08-06 13:28:00,84.0,37.4,29.96,North,0,0.0,0.0,19,0.00,,SKC,0.00,VWS V13.00,2013-08-06 19:28:00,
2013-08-06 13:33:00,84.9,38.1,29.96,North,0,0.0,0.0,19,0.00,,SKC,0.00,VWS V13.00,2013-08-06 19:33:00,
2013-08-06 13:38:00,85.5,38.5,29.96,North,0,0.0,0.0,19,0.00,,SKC,0.00,VWS V13.00,2013-08-06 19:38:00,
2013-08-06 13:43:00,85.8,38.8,29.96,North,0,0.0,0.0,19,0.00,,SKC,0.00,VWS V13.00,2013-08-06 19:43:00,
2013-08-06 13:48:00,86.4,39.3,29.96,North,0,0.0,0.0,19,0.00,,SKC,0.00,VWS V13.00,2013-08-06 19:48:00,
2013-08-06 13:54:00,86.5,39.4,29.96,North,0,0.0,0.0,19,0.00,,SKC,0.00,VWS V13.00,2013-08-06 19:54:00,
2013-08-06 13:59:00,86.7,39.6,29.96,North,0,0.0,0.0,19,0.00,,SKC,0.00,VWS V13.00,2013-08-06 19:59:00,
2013-08-06 14:04:00,86.7,38.2,29.96,North,0,0.0,0.0,18,0.00,,SKC,0.00,VWS V13.00,2013-08-06 20:04:00,
2013-08-06 14:09:00,87.1,39.9,29.96,North,0,0.0,0.0,19,0.00,,SKC,0.00,VWS V13.00,2013-08-06 20:09:00,
2013-08-06 14:14:00,87.3,40.0,29.96,North,0,0.0,0.0,19,0.00,,SKC,0.00,VWS V13.00,2013-08-06 20:14:00,
2013-08-06 14:19:00,87.1,38.5,29.96,North,0,0.0,0.0,18,0.00,,SKC,0.00,VWS V13.00,2013-08-06 20:19:00,
2013-08-06 14:24:00,87.4,40.2,29.96,North,0,0.0,0.0,19,0.00,,SKC,0.00,VWS V13.00,2013-08-06 20:24:00,
2013-08-06 14:29:00,87.8,39.1,29.96,North,0,0.0,0.0,18,0.00,,SKC,0.00,VWS V13.00,2013-08-06 20:29:00,
2013-08-06 14:32:00,87.8,39.1,29.96,North,0,0.0,0.0,18,0.00,,SKC,0.00,VWS V13.00,2013-08-06 20:32:00,
2013-08-06 14:37:00,87.6,38.9,29.96,North,0,0.0,0.0,18,0.00,,SKC,0.00,VWS V13.00,2013-08-06 20:37:00,
2013-08-06 14:42:00,87.3,38.6,29.96,North,0,0.0,0.0,18,0.00,,SKC,0.00,VWS V13.00,2013-08-06 20:42:00,
2013-08-06 14:47:00,87.1,38.5,29.96,North,0,0.0,0.0,18,0.00,,SKC,0.00,VWS V13.00,2013-08-06 20:47:00,
2013-08-06 14:52:00,87.1,38.5,29.96,North,0,0.0,0.0,18,0.00,,SKC,0.00,VWS V13.00,2013-08-06 20:52:00,
2013-08-06 14:57:00,87.1,38.5,29.96,North,0,0.0,0.0,18,0.00,,SKC,0.00,VWS V13.00,2013-08-06 20:57:00,
2013-08-06 15:02:00,87.3,40.0,29.96,North,0,0.0,0.0,19,0.00,,SKC,0.00,VWS V13.00,2013-08-06 21:02:00,
2013-08-06 15:07:00,87.4,40.2,29.96,North,0,0.0,0.0,19,0.00,,SKC,0.00,VWS V13.00,2013-08-06 21:07:00,
2013-08-06 15:12:00,87.3,40.0,29.96,North,0,0.0,0.0,19,0.00,,SKC,0.00,VWS V13.00,2013-08-06 21:12:00,
2013-08-06 15:17:00,87.1,38.5,29.96,North,0,0.0,0.0,18,0.00,,SKC,0.00,VWS V13.00,2013-08-06 21:17:00,
2013-08-06 15:22:00,86.9,39.7,29.96,North,0,0.0,0.0,19,0.00,,SKC,0.00,VWS V13.00,2013-08-06 21:22:00,
2013-08-06 15:27:00,86.5,38.0,29.96,North,0,0.0,0.0,18,0.00,,SKC,0.00,VWS V13.00,2013-08-06 21:27:00,
2013-08-06 15:32:00,86.2,37.8,29.96,North,0,0.0,0.0,18,0.00,,SKC,0.00,VWS V13.00,2013-08-06 21:32:00,
2013-08-06 15:37:00,85.6,38.7,29.96,North,0,0.0,0.0,19,0.00,,SKC,0.00,VWS V13.00,2013-08-06 21:37:00,
2013-08-06 15:42:00,85.3,38.4,29.96,North,0,0.0,0.0,19,0.00,,SKC,0.00,VWS V13.00,2013-08-06 21:42:00,
2013-08-06 15:47:00,84.7,38.0,29.96,North,0,0.0,0.0,19,0.00,,SKC,0.00,VWS V13.00,2013-08-06 21:47:00,
2013-08-06 15:52:00,84.2,37.5,29.96,North,0,0.0,0.0,19,0.00,,SKC,0.00,VWS V13.00,2013-08-06 21:52:00,
2013-08-06 15:58:00,83.8,37.2,29.96,North,0,0.0,0.0,19,0.00,,SKC,0.00,VWS V13.00,2013-08-06 21:58:00,
2013-08-06 16:03:00,83.7,37.1,29.96,North,0,0.0,0.0,19,0.00,,SKC,0.00,VWS V13.00,2013-08-06 22:03:00,
2013-08-06 16:08:00,83.3,36.8,29.96,North,0,0.0,0.0,19,0.00,,SKC,0.00,VWS V13.00,2013-08-06 22:08:00,
2013-08-06 16:13:00,82.6,36.2,29.96,North,0,0.0,0.0,19,0.00,,SKC,0.00,VWS V13.00,2013-08-06 22:13:00,
2013-08-06 16:18:00,82.2,37.2,29.96,North,0,0.0,0.0,20,0.00,,SKC,0.00,VWS V13.00,2013-08-06 22:18:00,
2013-08-06 16:23:00,81.9,36.9,29.96,North,0,0.0,0.0,20,0.00,,SKC,0.00,VWS V13.00,2013-08-06 22:23:00,
2013-08-06 16:28:00,81.5,36.6,29.96,North,0,0.0,0.0,20,0.00,,SKC,0.00,VWS V13.00,2013-08-06 22:28:00,
2013-08-06 16:33:00,81.3,36.5,29.96,North,0,0.0,0.0,20,0.00,,SKC,0.00,VWS V13.00,2013-08-06 22:33:00,
2013-08-06 16:38:00,81.3,36.5,29.96,North,0,0.0,0.0,20,0.00,,SKC,0.00,VWS V13.00,2013-08-06 22:38:00,
2013-08-06 16:43:00,81.0,36.2,29.96,North,0,0.0,0.0,20,0.00,,SKC,0.00,VWS V13.00,2013-08-06 22:43:00,
2013-08-06 16:48:00,80.2,36.8,29.96,North,0,0.0,0.0,21,0.00,,SKC,0.00,VWS V13.00,2013-08-06 22:48:00,
2013-08-06 16:53:00,79.9,36.5,29.96,North,0,0.0,0.0,21,0.00,,SKC,0.00,VWS V13.00,2013-08-06 22:53:00,
2013-08-06 16:58:00,79.7,36.3,29.96,North,0,0.0,0.0,21,0.00,,SKC,0.00,VWS V13.00,2013-08-06 22:58:00,
2013-08-06 17:03:00,79.2,35.9,29.96,North,0,0.0,0.0,21,0.00,,SKC,0.00,VWS V13.00,2013-08-06 23:03:00,
2013-08-06 17:08:00,79.0,36.9,29.96,North,0,0.0,0.0,22,0.00,,SKC,0.00,VWS V13.00,2013-08-06 23:08:00,
2013-08-06 17:09:00,79.0,36.9,29.96,North,0,0.0,0.0,22,0.00,,SKC,0.00,VWS V13.00,2013-08-06 23:09:00,
2013-08-06 17:14:00,78.6,36.6,29.96,North,0,0.0,0.0,22,0.00,,SKC,0.00,VWS V13.00,2013-08-06 23:14:00,
2013-08-06 17:19:00,78.3,36.3,29.96,North,0,0.0,0.0,22,0.00,,SKC,0.00,VWS V13.00,2013-08-06 23:19:00,
2013-08-06 17:24:00,77.9,36.0,29.96,North,0,0.0,0.0,22,0.00,,SKC,0.00,VWS V13.00,2013-08-06 23:24:00,
2013-08-06 17:29:00,77.5,35.7,29.96,North,0,0.0,0.0,22,0.00,,SKC,0.00,VWS V13.00,2013-08-06 23:29:00,
2013-08-06 17:34:00,77.4,35.6,29.96,North,0,0.0,0.0,22,0.00,,SKC,0.00,VWS V13.00,2013-08-06 23:34:00,
2013-08-06 17:39:00,77.4,35.6,29.96,North,0,0.0,0.0,22,0.00,,SKC,0.00,VWS V13.00,2013-08-06 23:39:00,
2013-08-06 17:44:00,77.4,35.6,29.96,North,0,0.0,0.0,22,0.00,,SKC,0.00,VWS V13.00,2013-08-06 23:44:00,
2013-08-06 17:50:00,77.2,35.4,29.96,North,0,0.0,0.0,22,0.00,,SKC,0.00,VWS V13.00,2013-08-06 23:50:00,
2013-08-06 17:54:00,76.8,36.2,29.96,North,0,0.0,0.0,23,0.00,,SKC,0.00,VWS V13.00,2013-08-06 23:54:00,
2013-08-06 18:00:00,76.3,35.8,29.96,North,0,0.0,0.0,23,0.00,,SKC,0.00,VWS V13.00,2013-08-07 00:00:00,
2013-08-06 18:05:00,76.1,35.7,29.96,North,0,0.0,0.0,23,0.00,,SKC,0.00,VWS V13.00,2013-08-07 00:05:00,
2013-08-06 18:10:00,75.9,35.5,29.96,North,0,0.0,0.0,23,0.00,,SKC,0.00,VWS V13.00,2013-08-07 00:10:00,
2013-08-06 18:15:00,75.7,34.2,29.96,North,0,0.0,0.0,22,0.00,,SKC,0.00,VWS V13.00,2013-08-07 00:15:00,
2013-08-06 18:20:00,75.9,36.6,29.96,North,0,0.0,0.0,24,0.00,,SKC,0.00,VWS V13.00,2013-08-07 00:20:00,
2013-08-06 18:25:00,75.7,36.4,29.96,North,0,0.0,0.0,24,0.00,,SKC,0.00,VWS V13.00,2013-08-07 00:25:00,
2013-08-06 18:30:00,75.6,35.2,29.93,North,0,0.0,0.0,23,0.00,,SKC,0.00,VWS V13.00,2013-08-07 00:30:00,
2013-08-06 18:35:00,75.4,35.0,29.93,North,0,0.0,0.0,23,0.00,,SKC,0.00,VWS V13.00,2013-08-07 00:35:00,
2013-08-06 18:40:00,75.4,36.1,29.93,North,0,0.0,0.0,24,0.00,,SKC,0.00,VWS V13.00,2013-08-07 00:40:00,
2013-08-06 18:45:00,75.2,36.0,29.96,North,0,0.0,0.0,24,0.00,,SKC,0.00,VWS V13.00,2013-08-07 00:45:00,
2013-08-06 18:50:00,74.8,36.7,29.96,North,0,0.0,0.0,25,0.00,,SKC,0.00,VWS V13.00,2013-08-07 00:50:00,
2013-08-06 18:55:00,74.8,36.7,29.96,North,0,0.0,0.0,25,0.00,,SKC,0.00,VWS V13.00,2013-08-07 00:55:00,
2013-08-06 19:00:00,74.7,35.5,29.96,North,0,0.0,0.0,24,0.00,,SKC,0.00,VWS V13.00,2013-08-07 01:00:00,
2013-08-06 19:05:00,74.7,36.5,29.96,North,0,0.0,0.0,25,0.00,,SKC,0.00,VWS V13.00,2013-08-07 01:05:00,
2013-08-06 19:10:00,74.5,36.4,29.96,North,0,0.0,0.0,25,0.00,,SKC,0.00,VWS V13.00,2013-08-07 01:10:00,
2013-08-06 19:15:00,74.1,36.1,29.93,North,0,0.0,0.0,25,0.00,,SKC,0.00,VWS V13.00,2013-08-07 01:15:00,
2013-08-06 19:20:00,73.8,35.8,29.93,North,0,0.0,0.0,25,0.00,,SKC,0.00,VWS V13.00,2013-08-07 01:20:00,
2013-08-06 19:25:00,73.4,35.5,29.93,North,0,0.0,0.0,25,0.00,,SKC,0.00,VWS V13.00,2013-08-07 01:25:00,
2013-08-06 19:31:00,72.9,36.0,29.93,North,0,0.0,0.0,26,0.00,,SKC,0.00,VWS V13.00,2013-08-07 01:31:00,
2013-08-06 19:36:00,72.5,35.7,29.93,North,0,0.0,0.0,26,0.00,,SKC,0.00,VWS V13.00,2013-08-07 01:36:00,
2013-08-06 19:41:00,72.1,35.4,29.93,North,0,0.0,0.0,26,0.00,,SKC,0.00,VWS V13.00,2013-08-07 01:41:00,
2013-08-06 19:46:00,71.8,36.0,29.93,North,0,0.0,0.0,27,0.00,,SKC,0.00,VWS V13.00,2013-08-07 01:46:00,
2013-08-06 19:51:00,71.4,36.7,29.93,North,0,0.0,0.0,28,0.00,,SKC,0.00,VWS V13.00,2013-08-07 01:51:00,
2013-08-06 19:56:00,70.9,36.2,29.93,North,0,0.0,0.0,28,0.00,,SKC,0.00,VWS V13.00,2013-08-07 01:56:00,
2013-08-06 20:01:00,70.5,35.9,29.93,North,0,0.0,0.0,28,0.00,,SKC,0.00,VWS V13.00,2013-08-07 02:01:00,
2013-08-06 20:06:00,70.2,37.3,29.93,North,0,0.0,0.0,30,0.00,,SKC,0.00,VWS V13.00,2013-08-07 02:06:00,
2013-08-06 20:11:00,69.8,37.8,29.93,North,0,0.0,0.0,31,0.00,,SKC,0.00,VWS V13.00,2013-08-07 02:11:00,
2013-08-06 20:16:00,69.8,37.8,29.96,North,0,0.0,0.0,31,0.00,,SKC,0.00,VWS V13.00,2013-08-07 02:16:00,
2013-08-06 20:21:00,68.7,37.7,29.96,North,0,0.0,0.0,32,0.00,,SKC,0.00,VWS V13.00,2013-08-07 02:21:00,
2013-08-06 20:26:00,68.4,37.4,29.96,North,0,0.0,0.0,32,0.00,,SKC,0.00,VWS V13.00,2013-08-07 02:26:00,
2013-08-06 20:31:00,68.2,38.0,29.96,North,0,0.0,0.0,33,0.00,,SKC,0.00,VWS V13.00,2013-08-07 02:31:00,
2013-08-06 20:36:00,67.8,37.7,29.96,North,0,0.0,0.0,33,0.00,,SKC,0.00,VWS V13.00,2013-08-07 02:36:00,
2013-08-06 20:42:00,67.5,37.4,29.96,North,0,0.0,0.0,33,0.00,,SKC,0.00,VWS V13.00,2013-08-07 02:42:00,
2013-08-06 20:47:00,67.3,37.2,29.96,North,0,0.0,0.0,33,0.00,,SKC,0.00,VWS V13.00,2013-08-07 02:47:00,
2013-08-06 20:52:00,66.9,36.9,29.96,North,0,0.0,0.0,33,0.00,,SKC,0.00,VWS V13.00,2013-08-07 02:52:00,
2013-08-06 20:57:00,66.7,36.8,29.96,North,0,0.0,0.0,33,0.00,,SKC,0.00,VWS V13.00,2013-08-07 02:57:00,
2013-08-06 21:02:00,66.6,36.6,29.96,North,0,0.0,0.0,33,0.00,,SKC,0.00,VWS V13.00,2013-08-07 03:02:00,
2013-08-06 21:07:00,66.2,36.3,29.96,North,0,0.0,0.0,33,0.00,,SKC,0.00,VWS V13.00,2013-08-07 03:07:00,
2013-08-06 21:12:00,65.8,36.0,29.96,North,0,0.0,0.0,33,0.00,,SKC,0.00,VWS V13.00,2013-08-07 03:12:00,
2013-08-06 21:17:00,65.5,35.6,29.96,North,0,0.0,0.0,33,0.00,,SKC,0.00,VWS V13.00,2013-08-07 03:17:00,
2013-08-06 21:22:00,65.3,35.5,29.96,North,0,0.0,0.0,33,0.00,,SKC,0.00,VWS V13.00,2013-08-07 03:22:00,
2013-08-06 21:27:00,64.8,35.0,29.96,North,0,0.0,0.0,33,0.00,,SKC,0.00,VWS V13.00,2013-08-07 03:27:00,
2013-08-06 21:32:00,64.6,34.8,29.96,North,0,0.0,0.0,33,0.00,,SKC,0.00,VWS V13.00,2013-08-07 03:32:00,
2013-08-06 21:37:00,64.2,35.3,29.96,North,0,0.0,0.0,34,0.00,,SKC,0.00,VWS V13.00,2013-08-07 03:37:00,
2013-08-06 21:42:00,64.0,35.1,29.96,North,0,0.0,0.0,34,0.00,,SKC,0.00,VWS V13.00,2013-08-07 03:42:00,
2013-08-06 21:47:00,63.7,34.8,29.96,North,0,0.0,0.0,34,0.00,,SKC,0.00,VWS V13.00,2013-08-07 03:47:00,
2013-08-06 21:52:00,63.5,34.7,29.96,North,0,0.0,0.0,34,0.00,,SKC,0.00,VWS V13.00,2013-08-07 03:52:00,
2013-08-06 21:57:00,63.5,33.9,29.96,North,0,0.0,0.0,33,0.00,,SKC,0.00,VWS V13.00,2013-08-07 03:57:00,
2013-08-06 22:01:00,63.3,33.8,29.96,North,0,0.0,0.0,33,0.00,,SKC,0.00,VWS V13.00,2013-08-07 04:01:00,
2013-08-06 22:06:00,63.3,34.5,29.96,North,0,0.0,0.0,34,0.00,,SKC,0.00,VWS V13.00,2013-08-07 04:06:00,
2013-08-06 22:11:00,63.0,34.2,29.96,North,0,0.0,0.0,34,0.00,,SKC,0.00,VWS V13.00,2013-08-07 04:11:00,
2013-08-06 22:16:00,62.4,33.7,29.96,North,0,0.0,0.0,34,0.00,,SKC,0.00,VWS V13.00,2013-08-07 04:16:00,
2013-08-06 22:21:00,62.1,33.4,29.96,North,0,0.0,0.0,34,0.00,,SKC,0.00,VWS V13.00,2013-08-07 04:21:00,
2013-08-06 22:27:00,61.5,32.9,29.96,North,0,0.0,0.0,34,0.00,,SKC,0.00,VWS V13.00,2013-08-07 04:27:00,
2013-08-06 22:32:00,61.3,32.8,29.96,North,0,0.0,0.0,34,0.00,,SKC,0.00,VWS V13.00,2013-08-07 04:32:00,
2013-08-06 22:37:00,61.2,32.6,29.96,North,0,0.0,0.0,34,0.00,,SKC,0.00,VWS V13.00,2013-08-07 04:37:00,
2013-08-06 22:42:00,61.0,32.4,29.96,North,0,0.0,0.0,34,0.00,,SKC,0.00,VWS V13.00,2013-08-07 04:42:00,
2013-08-06 22:47:00,61.0,32.4,29.96,North,0,0.0,0.0,34,0.00,,SKC,0.00,VWS V13.00,2013-08-07 04:47:00,
2013-08-06 22:52:00,61.0,32.4,29.96,North,0,0.0,0.0,34,0.00,,SKC,0.00,VWS V13.00,2013-08-07 04:52:00,
2013-08-06 22:57:00,60.8,32.3,29.96,North,0,0.0,0.0,34,0.00,,SKC,0.00,VWS V13.00,2013-08-07 04:57:00,
2013-08-06 23:02:00,60.8,32.3,29.96,North,0,0.0,0.0,34,0.00,,SKC,0.00,VWS V13.00,2013-08-07 05:02:00,
2013-08-06 23:07:00,61.0,32.4,29.96,North,0,0.0,0.0,34,0.00,,SKC,0.00,VWS V13.00,2013-08-07 05:07:00,
2013-08-06 23:12:00,61.2,32.6,29.96,North,0,0.0,0.0,34,0.00,,SKC,0.00,VWS V13.00,2013-08-07 05:12:00,
2013-08-06 23:17:00,61.3,32.8,29.96,North,0,0.0,0.0,34,0.00,,SKC,0.00,VWS V13.00,2013-08-07 05:17:00,
2013-08-06 23:22:00,61.3,32.8,29.96,North,0,0.0,0.0,34,0.00,,SKC,0.00,VWS V13.00,2013-08-07 05:22:00,
2013-08-06 23:27:00,61.2,32.6,29.96,North,0,0.0,0.0,34,0.00,,SKC,0.00,VWS V13.00,2013-08-07 05:27:00,
2013-08-06 23:32:00,61.0,32.4,29.96,North,0,0.0,0.0,34,0.00,,SKC,0.00,VWS V13.00,2013-08-07 05:32:00,
2013-08-06 23:37:00,61.0,32.4,29.96,North,0,0.0,0.0,34,0.00,,SKC,0.00,VWS V13.00,2013-08-07 05:37:00,
2013-08-06 23:42:00,61.0,32.4,29.96,North,0,0.0,0.0,34,0.00,,SKC,0.00,VWS V13.00,2013-08-07 05:42:00,
2013-08-06 23:47:00,61.0,32.4,29.96,North,0,0.0,0.0,34,0.00,,SKC,0.00,VWS V13.00,2013-08-07 05:47:00,
2013-08-06 23:52:00,60.8,33.0,29.96,North,0,0.0,0.0,35,0.00,,SKC,0.00,VWS V13.00,2013-08-07 05:52:00,
2013-08-06 23:57:00,60.6,32.8,29.96,North,0,0.0,0.0,35,0.00,,SKC,0.00,VWS V13.00,2013-08-07 05:57:00,